Regional Weather Roundup
Issued by NWS

Home | Current Version | Previous Version | Graphics & Text | Print | Product List | Glossary On
Versions: 1 2 3 4 5 6 7 8 9 10 11 12 13 14 15 16 17 18 19 20 21 22 23 24 25 26 27 28 29 30 31 32 33 34 35 36 37 38 39 40 41 42 43 44 45 46 47 48 49 50
000
ASUS43 KOAX 122110
RWRNE

WEATHER ROUNDUP FOR NEBRASKA
NATIONAL WEATHER SERVICE OMAHA NE
300 PM CST FRI FEB 12 2016

NOTES: SATELLITE DATA IS BEING USED TO AUGMENT CLOUD COVER ABOVE
       12000 FEET.
       "FAIR" INDICATES FEW OR NO CLOUDS BELOW 12,000 FEET WITH NO
       SIGNIFICANT WEATHER AND/OR OBSTRUCTIONS TO VISIBILITY.

  * THESE STATIONS DO NOT REPORT WEATHER SUCH AS RAIN...SNOW OR FOG.

NEZ001>004-019>022-054>056-122200-
NEBRASKA PANHANDLE

CITY           SKY/WX    TMP DP  RH WIND       PRES   REMARKS
SCOTTSBLUFF    CLOUDY    38  31  76 E15       30.31F WCI  29
ALLIANCE       CLOUDY    33  28  81 SE6       30.32F WCI  28
CHADRON        CLOUDY    38  28  67 SE5       30.33F WCI  34
KIMBALL        SUNNY     45  31  59 E12       30.28F
SIDNEY         CLOUDY    33  31  92 SE13      30.31F WCI  24
$$

NEZ057>060-069>072-079>082-122200-
SOUTHWEST NEBRASKA

CITY           SKY/WX    TMP DP  RH WIND       PRES   REMARKS
NORTH PLATTE   CLOUDY    34  26  72 NE8       30.40F WCI  27
IMPERIAL       CLOUDY    36  30  79 E7        30.37F WCI  30
LEXINGTON      CLOUDY    32  27  83 E12       30.43S WCI  23
MCCOOK         CLOUDY    37  30  75 E7        30.40F WCI  32
OGALLALA       CLOUDY    36  30  79 E9        30.36F WCI  29
$$

NEZ005>010-023>029-035>040-094-122200-
NORTH CENTRAL NEBRASKA

CITY           SKY/WX    TMP DP  RH WIND       PRES   REMARKS
VALENTINE      CLOUDY    25  16  68 E6        30.44F WCI  18
AINSWORTH      CLOUDY    26  16  66 N5        30.44S WCI  20
BROKEN BOW     CLOUDY    28  21  75 NE8       30.43S WCI  20
O`NEILL        CLOUDY    23  11  61 N10       30.50S WCI  12
ORD            CLOUDY    27  17  66 N10       30.46F WCI  17
THEDFORD       CLOUDY    31  23  74 NE5       30.41F WCI  26
$$

NEZ041-046>049-061>064-073>077-083>087-122200-
SOUTH CENTRAL NEBRASKA

CITY           SKY/WX    TMP DP  RH WIND       PRES   REMARKS
GRAND ISLAND   CLOUDY    25  16  68 NE15      30.49F WCI  13
AURORA         CLOUDY    26  16  66 N10       30.49S WCI  16
HASTINGS       CLOUDY    24  22  91 NE10      30.46S FOG     WCI  14
HEBRON         CLOUDY    28  23  81 NE12G17   30.49S WCI  18
HOLDREGE       CLOUDY    32  28  85 NE10      30.43F WCI  24
KEARNEY *      CLOUDY    27  23  86 NE14      30.46S VSB 1   WCI  15
YORK           MOSUNNY   27  18  69 N15G22    30.50S WCI  15
$$

NEZ011>018-030>034-042>045-122200-
NORTHEAST NEBRASKA

CITY           SKY/WX    TMP DP  RH WIND       PRES   REMARKS
NORFOLK        PTSUNNY   20  11  68 N13       30.52R WCI   7
ALBION         CLOUDY    22  14  69 N10       30.50S WCI  12
BLAIR          PTSUNNY   21  13  71 N14G20    30.52R WCI   8
COLUMBUS *     CLOUDY    23   7  50 N14       30.53S WCI  11
FREMONT        CLOUDY    22  12  64 N10G16    30.54S WCI  12
TEKAMAH        CLOUDY    18   4  54 N21       30.55S WCI   1
WAYNE          CLOUDY    17   9  68 N13       30.55S WCI   4
$$

NEZ050>053-065>068-078-088>093-122200-
SOUTHEAST NEBRASKA

CITY           SKY/WX    TMP DP  RH WIND       PRES   REMARKS
LINCOLN        MOSUNNY   26  15  63 N17       30.54R WCI  13
OMAHA EPPLEY   MOSUNNY   22  11  62 NW22      30.53R WCI   6
BEATRICE       SUNNY     29  15  56 N15       30.50S WCI  18
FALLS CITY     MOSUNNY   30  13  49 N10G21    30.49R WCI  21
NEBRASKA CITY  SUNNY     28  11  50 N16G22    30.49S WCI  16
PLATTSMOUTH    SUNNY     25  11  56 N13       30.50S WCI  13
$$

NEZ044-045-051>053-067-122200-
OMAHA AREA

CITY           SKY/WX    TMP DP  RH WIND       PRES   REMARKS
OMAHA EPPLEY   MOSUNNY   22  11  62 NW22      30.53R WCI   6
BLAIR          PTSUNNY   21  13  71 N14G20    30.52R WCI   8
FREMONT        CLOUDY    22  12  64 N10G16    30.54S WCI  12
MILLARD        MOSUNNY   24  11  59 NW13      30.53S WCI  12
OFFUTT AFB     SUNNY     24  10  54 N16       30.52S WCI  11
PLATTSMOUTH    SUNNY     25  11  56 N13       30.50S WCI  13
WAHOO          FAIR      23  14  69 N13       30.53R WCI  11
$$



USA.gov is the U.S. government's official web portal to all federal, state and local government web resources and services.